Location: Austin
(30.3000°N, 97.7500°W)
Time: 00:04:06
(UTC-05:00)

CZ-4 R/B - Pass Details

Date: 08 April 2026
Orbit: 490 x 538 km, 97.6° (Epoch: 20 April)

Event Time Altitude Azimuth Distance (km) Brightness Sun altitude
Exits shadow 21:06:29 29° 87° (E) 983 2.1 -15.9°
Maximum altitude 21:06:53 30° 74° (ENE) 966 2.1 -16.0°
Drops below altitude 10° 21:10:14 10° 12° (NNE) 1,767 4.0 -16.7°
Sets 21:12:30 0° 2° (N) 2,650 5.0 -17.1°
